Youngstown, OH

3:28 AM EDT on June 29, 2017 (GMT -0400)
Youngstown-Warren Regional

Weather History for KYNG - October, 2011

Change the Weather History Date:

Tuesday, October 25, 2011

  Actual Average Record
Temperature  
Mean Temperature 50 °F 48 °F  
Max Temperature 64 °F 58 °F 81 °F (2012)
Min Temperature 36 °F 39 °F 26 °F (1987)
Degree Days  
Heating Degree Days 15 17  
Month to date heating degree days 280 333  
Since 1 July heating degree days 401 516  
Cooling Degree Days 0 0  
Month to date cooling degree days 0 3  
Year to date cooling degree days 731 541  
Moisture  
Dew Point 36 °F    
Average Humidity 68    
Maximum Humidity 100    
Minimum Humidity 36    
Precipitation  
Precipitation 0.00 in 0.08 in 0.95 in (1980)
Month to date precipitation 2.35 2.24  
Year to date precipitation 44.59 32.21  
Snow  
Snow 0.00 in 0.00 in - ()
Month to date snowfall T 0.5  
Since 1 July snowfall T 0.5  
Since 1 September snowfall T 0.5  
Snow Depth 0.00 in    
Sea Level Pressure  
Sea Level Pressure 30.11 in    
Wind  
Wind Speed 6 mph (SSW)    
Max Wind Speed 15 mph    
Max Gust Speed 20 mph    
Visibility 10 miles    
Events      
T = Trace of Precipitation, MM = Missing Value Source: NWS Daily Summary

Daily Weather History Graph

Daily Weather History Graph

Search for Another Location

Airport or City:

Trip Planner

Search our weather history database for the weather conditions in past years. The results will help you decide how hot, cold, wet, or windy it might be!

Date:

Astronomy

Oct. 25, 2011 Rise Set
Actual Time 7:45 AM EDT 6:27 PM EDT
Civil Twilight 7:17 AM EDT 6:55 PM EDT
Nautical Twilight 6:44 AM EDT 7:28 PM EDT
Astronomical Twilight 6:12 AM EDT 7:59 PM EDT
Moon 6:15 AM EDT (10/25) 5:28 PM EDT (10/25)
Length of Visible Light 11h 38m
Length of Day
10h 42m
Waning Crescent, 2% of the Moon is Illuminated
Oct 25
Waning Crescent
Oct 26
New
Nov 2
First Quarter
Nov 10
Full
Nov 18
Last Quarter

Hourly Weather History & Observations

Time (EDT) Temp. Windchill Dew Point Humidity Pressure Visibility Wind Dir Wind Speed Gust Speed Precip Events Conditions
12:51 AM 42.8 °F 39.3 °F 35.6 °F 76% 30.11 in 10.0 mi West 5.8 mph - N/A   Clear
1:51 AM 41.0 °F 37.1 °F 35.1 °F 79% 30.14 in 10.0 mi WSW 5.8 mph - N/A   Clear
2:51 AM 41.0 °F 37.1 °F 35.1 °F 79% 30.16 in 10.0 mi WSW 5.8 mph - N/A   Clear
3:51 AM 42.1 °F - 35.1 °F 76% 30.16 in 10.0 mi Calm Calm - N/A   Clear
4:51 AM 39.9 °F - 35.1 °F 83% 30.18 in 10.0 mi Calm Calm - N/A   Clear
5:51 AM 36.0 °F - 35.1 °F 97% 30.19 in 10.0 mi Calm Calm - N/A   Clear
6:51 AM 39.9 °F - 35.1 °F 83% 30.20 in 10.0 mi Calm Calm - N/A   Partly Cloudy
7:51 AM 36.0 °F 32.1 °F 33.1 °F 89% 30.21 in 10.0 mi SSW 4.6 mph - N/A   Partly Cloudy
8:51 AM 42.1 °F 39.2 °F 36.0 °F 79% 30.22 in 10.0 mi SSW 4.6 mph - N/A   Partly Cloudy
9:51 AM 48.0 °F - 37.0 °F 66% 30.22 in 10.0 mi SW 3.5 mph - N/A   Scattered Clouds
10:51 AM 48.9 °F - 37.0 °F 64% 30.21 in 10.0 mi SW 5.8 mph - N/A   Mostly Cloudy
11:51 AM 55.0 °F - 39.9 °F 57% 30.19 in 10.0 mi South 6.9 mph - N/A   Mostly Cloudy
12:51 PM 60.1 °F - 37.9 °F 44% 30.17 in 10.0 mi WSW 5.8 mph - N/A   Mostly Cloudy
1:51 PM 61.0 °F - 35.1 °F 38% 30.14 in 10.0 mi Variable 4.6 mph - N/A   Scattered Clouds
2:51 PM 62.1 °F - 35.1 °F 37% 30.11 in 10.0 mi SW 9.2 mph - N/A   Overcast
3:51 PM 61.0 °F - 35.1 °F 38% 30.09 in 10.0 mi South 12.7 mph - N/A   Mostly Cloudy
4:51 PM 62.1 °F - 36.0 °F 38% 30.07 in 10.0 mi SSW 6.9 mph - N/A   Mostly Cloudy
5:51 PM 60.1 °F - 35.1 °F 39% 30.04 in 10.0 mi South 8.1 mph - N/A   Mostly Cloudy
6:51 PM 57.0 °F - 35.1 °F 44% 30.01 in 10.0 mi South 6.9 mph - N/A   Mostly Cloudy
7:51 PM 57.0 °F - 34.0 °F 42% 29.99 in 10.0 mi South 9.2 mph - N/A   Mostly Cloudy
8:51 PM 55.9 °F - 35.1 °F 45% 29.98 in 10.0 mi South 5.8 mph - N/A   Mostly Cloudy
9:51 PM 54.0 °F - 35.1 °F 49% 29.98 in 10.0 mi South 4.6 mph - N/A   Mostly Cloudy
10:51 PM 55.0 °F - 37.0 °F 51% 29.95 in 10.0 mi SSW 5.8 mph - N/A   Mostly Cloudy
11:51 PM 55.0 °F - 37.0 °F 51% 29.93 in 10.0 mi South 6.9 mph - N/A   Mostly Cloudy